• In United Kingdom
  • List of Countries
  • For 7 days
  • Water Temperature
  • Satellite Maps
  • Weather Map
  • Weather Widgets
  • user-avatar
    Login

    Hourly Weather Kerns

    Today, 26 September, Wednesday

    Time Temperature Precipitation Wind Pressure Humidity
    00:00 +20°C° 0 mm 5 mps 762 mmHg 90%
    01:00 +20°C° 0 mm 5 mps 761 mmHg 91%
    02:00 +20°C° 0 mm 5 mps 761 mmHg 92%
    03:00 +20°C° 0 mm 5 mps 761 mmHg 92%
    04:00 +19°C° 0 mm 4 mps 761 mmHg 93%
    05:00 +20°C° 0 mm 4 mps 761 mmHg 91%
    06:00 +20°C° 0 mm 5 mps 761 mmHg 88%
    07:00 +21°C° 0 mm 5 mps 761 mmHg 86%
    08:00 +23°C° 0 mm 5 mps 762 mmHg 75%
    09:00 +26°C° 0 mm 5 mps 762 mmHg 63%
    10:00 +29°C° 0 mm 5 mps 762 mmHg 52%
    11:00 +29°C° 0.1 mm 5 mps 762 mmHg 52%
    12:00 +29°C° 0.1 mm 6 mps 761 mmHg 51%
    13:00 +29°C° 0.1 mm 6 mps 761 mmHg 50%
    14:00 +29°C° 0 mm 6 mps 761 mmHg 51%
    15:00 +29°C° 0 mm 6 mps 760 mmHg 52%
    16:00 +28°C° 0 mm 5 mps 760 mmHg 54%
    17:00 +26°C° 0 mm 5 mps 760 mmHg 62%
    18:00 +25°C° 0 mm 5 mps 761 mmHg 71%
    19:00 +22°C° 0 mm 5 mps 761 mmHg 79%
    20:00 +21°C° 0 mm 5 mps 761 mmHg 83%
    21:00 +21°C° 0 mm 5 mps 762 mmHg 88%
    22:00 +20°C° 0 mm 5 mps 762 mmHg 92%
    23:00 +20°C° 0 mm 5 mps 762 mmHg 92%

    Tomorrow, 27 September, Thursday

    Time Temperature Precipitation Wind Pressure Humidity
    00:00 +20°C° 0 mm 5 mps 762 mmHg 93%
    01:00 +19°C° 0 mm 5 mps 762 mmHg 94%
    02:00 +19°C° 0 mm 5 mps 761 mmHg 94%
    03:00 +19°C° 0 mm 5 mps 761 mmHg 94%
    04:00 +19°C° 0 mm 5 mps 761 mmHg 95%
    05:00 +20°C° 0 mm 5 mps 762 mmHg 93%
    06:00 +20°C° 0 mm 5 mps 762 mmHg 91%
    07:00 +21°C° 0 mm 5 mps 762 mmHg 89%
    08:00 +23°C° 0 mm 5 mps 762 mmHg 76%
    09:00 +26°C° 0 mm 5 mps 763 mmHg 63%
    10:00 +29°C° 0 mm 6 mps 763 mmHg 49%
    11:00 +29°C° 0 mm 6 mps 762 mmHg 46%
    12:00 +30°C° 0 mm 6 mps 762 mmHg 43%
    13:00 +32°C° 0 mm 6 mps 761 mmHg 40%
    14:00 +32°C° 0 mm 5 mps 761 mmHg 40%
    15:00 +30°C° 0 mm 5 mps 761 mmHg 40%
    16:00 +30°C° 0 mm 5 mps 760 mmHg 40%
    17:00 +27°C° 0 mm 5 mps 761 mmHg 51%
    18:00 +25°C° 0 mm 4 mps 761 mmHg 61%
    19:00 +22°C° 0 mm 4 mps 761 mmHg 71%
    20:00 +21°C° 0 mm 4 mps 762 mmHg 76%
    21:00 +20°C° 0 mm 4 mps 762 mmHg 81%
    22:00 +19°C° 0 mm 4 mps 762 mmHg 86%
    23:00 +19°C° 0 mm 4 mps 762 mmHg 87%

    Day after tomorrow, 28 September, Friday

    Time Temperature Precipitation Wind Pressure Humidity
    00:00 +18°C° 0 mm 4 mps 762 mmHg 88%
    01:00 +18°C° 0 mm 4 mps 761 mmHg 90%
    02:00 +18°C° 0 mm 4 mps 761 mmHg 91%
    03:00 +18°C° 0 mm 4 mps 761 mmHg 93%
    04:00 +18°C° 0 mm 4 mps 761 mmHg 95%
    05:00 +19°C° 0 mm 4 mps 761 mmHg 93%
    06:00 +20°C° 0 mm 4 mps 762 mmHg 92%
    07:00 +20°C° 0 mm 4 mps 762 mmHg 91%
    08:00 +23°C° 0 mm 5 mps 763 mmHg 77%
    09:00 +26°C° 0 mm 5 mps 763 mmHg 64%
    10:00 +29°C° 0 mm 5 mps 763 mmHg 51%
    11:00 +30°C° 0 mm 5 mps 763 mmHg 45%
    12:00 +32°C° 0 mm 5 mps 762 mmHg 40%
    13:00 +33°C° 0 mm 5 mps 761 mmHg 34%
    14:00 +32°C° 0 mm 5 mps 761 mmHg 35%
    15:00 +32°C° 0 mm 5 mps 761 mmHg 36%
    16:00 +30°C° 0 mm 5 mps 760 mmHg 36%
    17:00 +28°C° 0 mm 5 mps 761 mmHg 48%
    18:00 +25°C° 0 mm 5 mps 761 mmHg 60%
    19:00 +22°C° 0 mm 5 mps 762 mmHg 71%
    20:00 +21°C° 0 mm 5 mps 762 mmHg 78%
    21:00 +21°C° 0 mm 5 mps 763 mmHg 85%
    22:00 +20°C° 0 mm 5 mps 763 mmHg 92%
    23:00 +20°C° 0 mm 5 mps 763 mmHg 93%

    29 September, Saturday

    Time Temperature Precipitation Wind Pressure Humidity
    00:00 +20°C° 0 mm 5 mps 762 mmHg 93%
    01:00 +20°C° 0 mm 5 mps 762 mmHg 94%
    02:00 +20°C° 0 mm 5 mps 762 mmHg 94%
    03:00 +20°C° 0 mm 5 mps 761 mmHg 94%
    04:00 +20°C° 0 mm 5 mps 761 mmHg 94%
    05:00 +20°C° 0 mm 5 mps 762 mmHg 92%
    06:00 +21°C° 0 mm 5 mps 762 mmHg 89%
    07:00 +21°C° 0 mm 6 mps 763 mmHg 87%
    08:00 +23°C° 0 mm 6 mps 763 mmHg 75%
    09:00 +27°C° 0 mm 6 mps 763 mmHg 64%
    10:00 +29°C° 0 mm 6 mps 763 mmHg 52%
    11:00 +30°C° 0 mm 6 mps 762 mmHg 48%
    12:00 +32°C° 0 mm 6 mps 762 mmHg 43%
    13:00 +33°C° 0 mm 6 mps 761 mmHg 39%
    14:00 +32°C° 0 mm 6 mps 761 mmHg 39%
    15:00 +32°C° 0 mm 6 mps 760 mmHg 38%
    16:00 +30°C° 0 mm 6 mps 760 mmHg 38%
    17:00 +28°C° 0 mm 5 mps 760 mmHg 50%
    18:00 +25°C° 0 mm 5 mps 761 mmHg 61%
    19:00 +22°C° 0 mm 5 mps 762 mmHg 73%
    20:00 +21°C° 0 mm 5 mps 762 mmHg 79%
    21:00 +21°C° 0 mm 5 mps 762 mmHg 86%
    22:00 +20°C° 0 mm 5 mps 763 mmHg 93%
    23:00 +20°C° 0 mm 5 mps 762 mmHg 93%

    30 September, Sunday

    Time Temperature Precipitation Wind Pressure Humidity
    00:00 +20°C° 0 mm 5 mps 762 mmHg 94%
    01:00 +20°C° 0 mm 4 mps 761 mmHg 95%
    02:00 +19°C° 0 mm 4 mps 761 mmHg 95%
    03:00 +19°C° 0 mm 5 mps 761 mmHg 95%
    04:00 +19°C° 0 mm 5 mps 761 mmHg 95%
    05:00 +20°C° 0 mm 5 mps 761 mmHg 93%
    06:00 +20°C° 0 mm 5 mps 762 mmHg 90%
    07:00 +20°C° 0 mm 5 mps 762 mmHg 88%
    08:00 +23°C° 0 mm 5 mps 762 mmHg 73%
    09:00 +27°C° 0 mm 6 mps 762 mmHg 57%
    10:00 +30°C° 0 mm 6 mps 763 mmHg 42%
    11:00 +32°C° 0 mm 6 mps 762 mmHg 38%
    12:00 +33°C° 0 mm 7 mps 761 mmHg 33%
    13:00 +34°C° 0 mm 7 mps 761 mmHg 29%
    14:00 +34°C° 0 mm 7 mps 760 mmHg 30%
    15:00 +33°C° 0 mm 7 mps 760 mmHg 31%
    16:00 +33°C° 0 mm 7 mps 760 mmHg 32%
    17:00 +29°C° 0 mm 6 mps 760 mmHg 46%
    18:00 +26°C° 0 mm 6 mps 761 mmHg 60%
    19:00 +23°C° 0 mm 5 mps 762 mmHg 74%
    20:00 +22°C° 0 mm 5 mps 762 mmHg 80%
    21:00 +21°C° 0 mm 5 mps 762 mmHg 86%
    22:00 +21°C° 0 mm 5 mps 762 mmHg 92%
    23:00 +21°C° 0 mm 5 mps 762 mmHg 92%

    1 October, Monday

    Time Temperature Precipitation Wind Pressure Humidity
    00:00 +20°C° 0 mm 5 mps 761 mmHg 93%
    01:00 +20°C° 0 mm 5 mps 761 mmHg 94%
    02:00 +20°C° 0.1 mm 5 mps 761 mmHg 94%
    03:00 +21°C° 0.1 mm 6 mps 761 mmHg 93%
    04:00 +21°C° 0.1 mm 6 mps 761 mmHg 93%
    05:00 +21°C° 0.1 mm 6 mps 761 mmHg 90%
    06:00 +22°C° 0.1 mm 6 mps 762 mmHg 87%
    07:00 +23°C° 0.1 mm 7 mps 762 mmHg 85%
    08:00 +26°C° 0.1 mm 7 mps 762 mmHg 77%
    09:00 +27°C° 0.1 mm 7 mps 762 mmHg 70%
    10:00 +29°C° 0.1 mm 8 mps 762 mmHg 62%
    11:00 +31°C° 0.1 mm 8 mps 762 mmHg 60%
    12:00 +31°C° 0.1 mm 8 mps 762 mmHg 58%
    13:00 +32°C° 0.1 mm 8 mps 761 mmHg 56%
    14:00 +31°C° 0.2 mm 8 mps 761 mmHg 60%
    15:00 +29°C° 0.2 mm 8 mps 761 mmHg 63%
    16:00 +29°C° 0.2 mm 8 mps 761 mmHg 67%
    17:00 +27°C° 0.1 mm 8 mps 761 mmHg 72%
    18:00 +26°C° 0.1 mm 7 mps 762 mmHg 77%
    19:00 +24°C° 0.1 mm 7 mps 762 mmHg 82%
    20:00 +24°C° 0.1 mm 7 mps 762 mmHg 83%
    21:00 +24°C° 0.1 mm 7 mps 763 mmHg 83%
    22:00 +24°C° 0.1 mm 7 mps 763 mmHg 84%
    23:00 +23°C° 0.1 mm 7 mps 762 mmHg 85%
    Show more